Location: Beuerbach
(48.1459°N, 10.9174°E)
Time: 20:39:09
(UTC+00:00)

SL-16 R/B - Pass Details

Date: 11 August 2024
Orbit: 842 x 845 km, 71.0° (Epoch: 07 September)

Event Time Altitude Azimuth Distance (km) Brightness Sun altitude
Exits shadow 00:42:39 25° 271° (W) 1,648 3.5 -24.2°
Maximum altitude 00:44:50 33° 311° (NW) 1,398 3.4 -24.0°
Drops below altitude 10° 00:49:55 10° 14° (NNE) 2,476 5.7 -23.7°
Sets 00:52:39 0° 24° (NNE) 3,415 6.8 -23.5°
